Theta_e
304 308 324 327 329 330 335 337 341 345 349 349 349 348 347 347 347 350 352 354 353 354 354 354 355 353 353 353 352 351 351 350 349 349 349 348 346 346 347 347 347 342 345
306 309 321 323 325 326 327 331 334 338 344 348 348 348 348 347 347 349 350 353 354 353 353 354 355 355 353 352 351 350 350 349 347 345 345 346 345 344 346 345 346 342 345
307 310 312 321 323 324 324 325 327 333 337 342 347 348 348 348 348 348 350 352 353 353 353 353 353 354 352 351 350 349 348 346 344 343 342 333 333 343 344 344 346 345 345
303 306 311 319 320 321 322 323 324 325 329 334 339 345 347 347 348 348 349 351 352 352 352 352 353 353 352 350 349 348 347 344 342 340 331 331 332 341 344 343 344 344 345
300 302 310 316 317 318 319 320 322 323 324 327 332 337 344 346 347 349 350 351 351 351 352 352 352 353 350 349 349 347 346 343 339 335 328 328 328 334 342 343 341 345 345
297 300 307 313 314 316 317 317 319 320 322 323 325 330 334 342 345 346 348 350 350 353 353 352 352 352 349 348 348 347 345 343 338 328 326 329 327 335 338 342 342 345 342
296 298 300 309 310 312 313 314 316 317 318 320 321 323 327 330 336 341 345 347 348 350 350 350 351 350 348 347 347 346 344 340 332 327 326 326 328 338 336 339 344 343 342
294 297 298 301 305 307 308 310 312 314 315 316 317 318 320 324 327 335 340 344 346 348 349 349 349 347 346 345 345 344 340 336 331 327 325 324 328 340 339 340 344 343 344
294 294 294 295 297 300 303 305 307 309 311 313 314 315 315 316 322 325 330 338 342 345 347 347 345 344 344 344 344 341 336 333 329 327 326 322 328 339 342 346 345 345 346
292 292 292 293 294 294 294 301 303 305 307 309 309 310 310 311 314 321 323 332 339 341 344 346 344 343 343 343 341 338 333 331 328 326 324 323 333 341 344 346 345 345 344
291 290 290 291 292 293 294 296 299 301 304 304 305 306 306 306 308 314 320 323 327 336 339 342 343 341 338 337 337 334 331 331 327 325 324 329 335 341 344 345 344 345 344
286 288 289 289 290 291 293 293 295 296 297 299 301 301 303 303 306 309 314 321 327 329 333 338 340 337 332 336 336 332 334 330 328 327 325 331 338 343 345 344 344 344 343
285 286 288 288 289 289 290 292 293 293 294 297 298 300 301 301 303 305 310 316 324 325 331 334 336 337 336 336 335 335 333 330 328 328 327 329 337 343 344 343 343 343 343
284 286 287 288 288 288 289 290 290 291 293 293 295 298 299 299 300 303 306 310 317 324 330 332 335 336 335 336 335 334 332 330 328 328 326 325 332 341 342 344 343 343 342
284 285 286 287 286 288 288 288 288 289 291 293 295 298 299 299 300 302 305 307 312 317 324 331 333 335 335 335 335 333 331 329 328 328 327 321 327 338 342 344 344 342 341
285 285 286 286 287 287 287 287 288 289 291 292 293 296 297 298 298 300 304 306 308 312 318 326 332 333 334 335 334 332 330 330 329 328 329 328 324 332 339 343 343 342 341
283 285 285 286 287 286 286 287 288 288 290 290 292 295 296 298 298 300 302 304 306 309 314 324 330 333 333 334 330 327 326 325 328 329 328 328 327 324 331 339 341 341 340
283 283 284 286 286 286 286 286 287 288 288 290 292 294 296 297 299 300 302 303 306 308 311 322 323 330 331 330 326 324 320 319 321 327 327 326 325 326 324 330 335 337 339
282 282 283 284 284 285 286 286 287 287 288 290 292 293 295 296 297 298 301 303 306 307 310 317 322 323 322 326 323 322 321 321 323 324 323 321 319 317 316 316 317 322 331
281 281 282 283 283 284 285 285 286 287 288 289 290 292 294 294 295 296 298 302 305 306 307 315 321 321 316 306 306 302 305 303 303 303 306 308 307 305 304 306 308 312 316
280 280 281 281 282 283 283 282 284 284 285 288 291 293 292 293 295 296 298 300 304 304 305 310 320 319 312 310 306 303 299 296 295 295 297 296 296 296 297 297 297 301 304
279 279 279 281 282 283 283 283 284 284 286 286 288 289 293 297 300 301 301 301 303 303 305 307 318 317 312 312 309 305 300 300 295 292 292 293 292 293 293 293 292 292 294
277 277 279 280 281 282 283 283 283 284 285 285 288 289 292 295 297 299 299 302 304 306 307 306 312 315 311 311 312 309 302 302 295 291 289 289 289 289 289 289 289 289 290
277 277 278 279 279 281 282 281 280 280 279 283 286 288 290 293 296 295 295 296 299 301 304 306 309 310 315 311 312 311 306 301 300 292 289 286 286 286 285 286 286 286 286
277 275 276 277 278 280 281 280 280 279 281 284 285 285 288 293 294 292 292 293 294 295 298 300 300 303 310 311 312 307 304 300 300 298 290 286 285 283 284 284 285 285 286
275 275 275 276 278 278 279 279 279 279 280 281 282 283 287 291 291 291 289 290 291 291 292 294 297 300 302 308 311 309 303 303 299 295 290 287 288 281 282 282 283 283 284
Wind_Speed
6 7 16 18 20 22 23 23 21 22 13 4 3 3 1 2 1 0 5 12 14 14 16 16 15 15 13 13 12 14 12 12 11 11 11 11 10 12 13 10 8 6 11
2 6 15 17 19 21 22 22 22 22 21 16 7 4 3 2 3 2 2 6 11 14 15 16 16 16 14 12 12 13 13 12 11 11 11 10 11 12 13 10 8 8 10
6 6 7 18 19 20 22 22 23 22 22 20 19 10 6 5 5 5 5 5 9 13 15 16 16 15 14 14 14 13 13 11 10 11 10 5 6 13 12 9 7 10 10
7 6 8 17 19 20 21 21 21 22 21 20 21 18 14 8 7 7 8 8 9 13 15 16 17 15 14 17 16 14 14 13 11 11 5 5 5 13 13 10 8 9 10
7 7 9 17 18 19 20 21 21 22 22 21 19 20 18 15 9 9 9 10 11 14 16 18 17 16 14 15 16 15 14 13 12 9 6 6 5 9 15 13 9 9 7
6 5 10 16 17 18 19 20 20 21 22 22 21 19 20 18 16 11 11 12 12 13 15 17 17 17 15 15 15 15 14 13 11 6 6 6 5 10 15 15 11 10 9
6 6 7 16 17 18 18 19 20 21 21 21 21 21 19 19 18 15 13 14 14 12 14 17 18 19 18 15 15 14 14 12 7 6 6 5 6 12 14 15 14 14 13
6 5 7 13 16 18 18 17 19 20 21 21 21 22 21 20 18 17 14 14 17 15 15 16 19 19 18 18 15 14 12 11 7 6 6 5 8 13 14 15 14 16 17
6 6 6 5 9 14 16 16 18 19 20 20 20 20 21 21 18 17 17 16 15 18 17 16 16 18 19 17 16 13 12 11 6 4 5 4 9 15 19 17 15 18 18
5 5 7 8 10 10 7 13 18 19 18 20 20 20 20 19 19 17 15 14 17 15 19 17 16 14 16 17 15 13 12 11 6 5 4 4 10 13 18 16 16 18 18
6 6 6 6 8 9 10 10 12 16 18 17 16 19 15 8 11 13 15 16 20 17 16 19 17 15 14 15 15 15 12 4 5 4 3 7 11 16 18 17 17 19 22
2 4 5 6 6 7 8 9 9 9 6 8 7 9 8 10 8 12 11 15 15 14 15 17 20 16 11 7 8 13 6 6 5 5 4 9 12 17 19 20 21 23 22
1 2 5 6 6 7 6 5 5 6 6 5 8 7 8 8 7 6 5 6 7 7 6 8 9 9 8 6 6 8 9 8 5 4 5 11 11 17 18 21 22 20 21
2 4 6 6 5 5 3 4 5 6 7 7 7 9 7 6 7 7 6 6 6 5 8 6 5 8 11 11 10 9 7 5 4 4 4 11 11 15 17 22 23 22 21
2 3 4 6 5 4 3 3 4 5 6 8 8 7 6 7 8 8 8 6 6 6 6 8 7 7 11 13 11 13 10 8 6 3 3 9 11 13 16 22 23 23 22
2 3 3 4 4 5 5 5 4 4 6 6 8 8 8 7 8 9 8 8 7 6 7 8 8 9 10 12 13 11 12 8 5 4 3 3 11 13 16 21 23 24 22
1 2 4 5 5 6 6 6 5 4 6 6 8 10 9 8 9 10 8 9 8 5 9 8 9 10 9 9 13 10 12 13 11 10 4 2 3 9 12 21 20 19 22
2 1 3 6 6 6 7 6 6 5 5 7 7 8 9 10 10 10 9 8 8 7 5 7 5 8 10 11 10 12 12 12 13 10 7 6 2 2 2 2 18 19 18
0 3 5 5 5 7 7 7 7 7 5 6 7 6 7 11 11 9 8 9 9 8 5 6 6 3 3 8 10 12 12 14 12 8 9 8 8 3 2 6 7 2 7
1 3 5 6 8 8 7 7 6 5 4 6 6 7 9 9 12 10 9 11 8 8 5 5 9 3 2 7 8 7 4 4 6 5 4 6 6 5 4 3 3 3 7
4 5 5 5 6 6 6 6 4 5 7 6 6 10 11 11 12 11 9 10 8 7 6 6 5 6 2 5 9 4 7 9 10 9 5 5 6 4 5 5 3 4 4
4 6 6 6 6 5 5 6 5 7 7 7 8 10 11 11 11 10 12 10 9 6 7 5 7 4 2 6 4 5 1 4 4 6 5 6 6 4 6 5 4 6 4
5 6 6 6 7 7 8 5 7 8 8 7 7 8 8 11 14 7 10 7 6 5 5 3 5 7 6 5 7 5 4 3 4 2 6 6 6 4 5 4 7 4 5
5 5 6 7 9 9 6 7 9 8 9 8 8 9 10 10 6 7 9 10 5 2 3 1 2 1 3 7 4 3 3 6 5 2 3 4 4 5 5 4 4 6 7
5 5 5 7 8 8 8 7 7 11 8 8 9 12 12 10 5 6 8 9 7 3 3 4 4 3 2 1 1 3 2 1 5 3 4 1 3 4 2 3 4 6 6
5 6 6 8 7 8 7 8 8 12 11 9 10 9 8 5 5 5 6 7 8 4 3 3 3 2 4 3 5 2 2 4 5 3 4 3 1 1 2 3 3 4 5
Wind_Direction
348 324 17 18 19 19 19 17 12 16 4 311 303 315 339 122 135 340 130 167 176 175 173 177 169 173 173 165 160 153 147 143 146 141 142 143 141 140 132 121 115 112 118
316 343 15 21 20 22 22 18 15 14 11 6 307 273 263 199 182 225 176 162 170 179 182 185 177 176 176 169 160 161 150 146 143 140 138 145 148 150 140 129 133 136 123
37 1 359 23 22 22 19 18 16 14 12 3 8 327 263 230 204 199 211 203 176 181 190 188 186 179 174 175 162 158 150 147 145 140 137 138 145 157 153 140 144 142 133
35 6 18 26 21 20 19 16 15 11 11 5 0 356 349 265 227 212 212 208 203 192 194 195 182 177 169 161 161 162 157 154 155 149 136 145 161 168 163 156 156 155 147
37 17 23 25 20 19 16 14 13 8 5 3 358 355 351 351 267 234 215 215 207 203 202 197 187 177 177 166 164 166 164 161 161 147 154 158 166 184 176 173 172 173 168
56 34 22 27 22 18 13 9 9 4 1 357 357 353 352 351 352 285 245 224 219 210 206 199 194 183 181 175 170 170 169 165 161 151 161 175 175 190 187 184 187 183 183
38 29 23 24 20 16 12 7 4 359 357 355 351 350 348 346 341 323 307 249 231 221 217 214 204 196 179 177 175 175 171 169 159 164 175 180 184 194 192 193 193 189 190
56 29 27 24 18 13 8 5 2 356 351 350 348 347 344 343 333 326 314 307 250 229 221 221 215 203 186 177 179 177 177 175 162 175 185 190 203 204 200 203 207 190 189
53 41 19 13 14 14 5 360 358 352 346 344 344 343 343 339 334 329 330 314 297 252 234 226 232 213 194 182 181 179 181 186 166 182 190 201 223 226 219 208 203 198 189
54 54 22 8 7 0 350 359 352 347 345 341 340 341 339 337 337 329 321 325 311 293 251 234 228 218 201 191 183 180 184 188 177 188 206 206 228 226 209 198 200 203 180
17 26 25 14 2 353 341 350 349 344 343 340 336 333 337 332 327 327 322 311 303 299 289 243 225 221 208 191 182 182 179 180 182 193 195 225 236 223 214 195 183 167 167
33 357 18 11 3 351 343 341 342 338 330 327 327 324 327 319 315 317 311 302 294 281 281 274 236 218 203 204 199 179 187 175 181 192 200 222 233 217 213 193 184 174 168
37 19 11 5 356 346 339 343 338 332 327 321 323 327 316 318 314 309 307 308 308 288 262 260 253 221 196 191 197 198 181 172 182 193 208 223 234 220 219 197 189 178 171
41 5 356 357 338 323 329 330 322 321 320 319 316 314 322 318 314 309 300 298 302 300 293 249 244 224 207 203 200 191 181 180 180 181 208 223 232 226 221 196 188 180 175
37 5 340 326 319 322 310 286 296 303 309 308 310 309 316 313 307 307 300 293 288 297 296 273 238 221 210 200 204 184 173 164 158 198 214 224 229 221 209 197 194 184 182
3 359 333 314 324 331 321 304 289 297 297 305 305 299 307 303 300 297 297 295 291 290 295 286 236 226 211 201 199 195 168 152 168 195 219 245 232 212 202 203 202 187 184
233 321 334 326 346 325 322 318 315 296 311 296 296 295 301 300 296 293 291 291 283 281 291 286 271 223 223 211 193 168 176 179 187 188 183 246 249 244 206 198 201 200 187
187 302 313 333 329 318 317 312 303 304 296 288 283 281 293 297 294 298 290 283 286 283 279 281 282 256 231 207 187 179 175 188 185 188 181 152 161 178 15 146 202 202 202
122 335 330 326 314 313 308 303 295 293 281 284 285 269 286 297 295 288 289 284 283 280 270 272 256 251 284 210 194 171 178 180 187 177 155 125 111 92 79 40 52 50 228
226 322 322 325 321 317 310 303 295 280 299 295 297 295 293 294 290 284 280 280 275 274 270 264 244 210 66 111 29 51 44 62 80 66 80 94 102 101 75 22 352 11 355
287 326 323 307 297 311 313 312 297 299 296 286 290 296 293 285 281 277 271 273 266 262 260 267 242 191 176 139 106 2 44 39 24 54 48 55 65 64 77 69 22 9 340
297 302 307 301 292 293 291 295 296 299 286 293 288 278 273 291 297 297 278 262 254 253 256 258 251 196 150 210 130 123 140 45 51 21 35 61 55 48 55 55 53 41 357
294 305 301 304 303 299 291 295 295 296 293 295 291 297 298 309 302 311 316 287 249 224 246 232 256 255 180 210 172 123 151 156 113 354 25 42 51 50 51 42 52 36 26
298 315 313 311 308 303 303 297 293 289 291 294 301 299 302 298 321 345 339 321 310 332 304 297 320 359 215 181 147 101 48 132 136 188 32 358 39 58 32 33 65 44 22
326 309 305 302 298 296 289 287 291 293 288 290 295 297 296 291 352 355 348 327 315 352 356 325 321 343 306 276 105 124 70 63 90 145 140 253 19 22 41 29 44 64 30
315 314 313 304 295 299 290 293 285 288 292 289 290 295 286 321 318 335 344 332 310 343 2 328 304 18 352 297 206 143 169 193 148 149 112 114 153 3 0 47 38 53 49